Weather History for Cut Bank, MT

Change the Weather History Date:

Friday, April 5, 2013

  Actual Average Record
Temperature  
Mean Temperature 48 °F 38 °F  
Max Temperature 60 °F 50 °F 72 °F (1969)
Min Temperature 36 °F 26 °F -11 °F (1936)
Degree Days  
Heating Degree Days 17 27  
Month to date heating degree days 114 138  
Since 1 July heating degree days 6908 7236  
Cooling Degree Days 0 0  
Month to date cooling degree days 0 0  
Year to date cooling degree days 0 0  
Moisture  
Dew Point 32 °F    
Average Humidity 54    
Maximum Humidity 76    
Minimum Humidity 31    
Precipitation  
Precipitation 0.00 in 0.02 in 0.50 in (1925)
Month to date precipitation 0.00 0.09  
Year to date precipitation 1.30 1.00  
Snow  
Snow 0.00 in - - ()
Snow Depth 0.00 in    
Sea Level Pressure  
Sea Level Pressure 29.67 in    
Wind  
Wind Speed 21 mph (WSW)    
Max Wind Speed 40 mph    
Max Gust Speed 48 mph    
Visibility 10 miles    
Events      
T = Trace of Precipitation, MM = Missing Value Source: NWS Daily Summary

Daily Weather History Graph

Daily Weather History Graph

Search for Another Location

Airport:

Trip Planner

Search our weather history database for the weather conditions in past years. The results will help you decide how hot, cold, wet, or windy it might be!

Date:

Astronomy

Apr. 05, 2013 Rise Set
Actual Time 6:58 AM MDT 8:06 PM MDT
Civil Twilight 6:26 AM MDT 8:38 PM MDT
Nautical Twilight 5:47 AM MDT 9:17 PM MDT
Astronomical Twilight 5:06 AM MDT 9:59 PM MDT
Moon 4:30 AM MDT (4/5) 3:14 PM MDT (4/5)
Length of Visible Light 14h 12m
Length of Day
13h 08m
Waning Crescent, 23% of the Moon is Illuminated
Apr 5
Waning Crescent
Apr 10
New
Apr 18
First Quarter
Apr 25
Full
May 2
Last Quarter

Hourly Weather History & Observations

Time (MDT) Temp. Windchill Dew Point Humidity Pressure Visibility Wind Dir Wind Speed Gust Speed Precip Events Conditions
12:56 AM 41.0 °F 35.8 °F 28.9 °F 62% 29.68 in 10.0 mi SSE 8.1 mph - N/A   Clear
1:56 AM 39.9 °F 34.5 °F 30.9 °F 70% 29.66 in 10.0 mi SW 8.1 mph - N/A   Clear
2:56 AM 44.1 °F 37.7 °F 34.0 °F 68% 29.64 in 10.0 mi SW 12.7 mph - N/A   Clear
3:56 AM 46.0 °F 38.5 °F 35.1 °F 66% 29.63 in 10.0 mi WSW 19.6 mph - N/A   Clear
4:56 AM 46.0 °F 38.8 °F 35.1 °F 66% 29.63 in 10.0 mi SW 18.4 mph - N/A   Clear
5:56 AM 48.0 °F - 35.1 °F 61% 29.62 in 10.0 mi WSW 20.7 mph - N/A   Clear
6:56 AM 46.0 °F 38.5 °F 34.0 °F 63% 29.62 in 10.0 mi WSW 19.6 mph - N/A   Clear
7:56 AM 46.9 °F - 33.1 °F 59% 29.61 in 10.0 mi WSW 25.3 mph 32.2 mph N/A   Clear
8:56 AM 48.0 °F - 33.1 °F 56% 29.62 in 10.0 mi WSW 28.8 mph 34.5 mph N/A   Clear
9:56 AM 50.0 °F - 33.1 °F 52% 29.64 in 10.0 mi WSW 26.5 mph 33.4 mph N/A   Clear
10:56 AM 51.1 °F - 30.9 °F 46% 29.65 in 10.0 mi WSW 25.3 mph - N/A   Clear
11:56 AM 55.0 °F - 30.0 °F 38% 29.65 in 10.0 mi WSW 23.0 mph 29.9 mph N/A   Clear
12:56 PM 57.0 °F - 28.9 °F 34% 29.65 in 10.0 mi WSW 17.3 mph 25.3 mph N/A   Partly Cloudy
1:56 PM 59.0 °F - 28.0 °F 31% 29.63 in 10.0 mi SW 29.9 mph 43.7 mph N/A   Clear
2:56 PM 57.0 °F - 28.9 °F 34% 29.64 in 10.0 mi WSW 33.4 mph 47.2 mph N/A   Partly Cloudy
3:56 PM 54.0 °F - 30.0 °F 40% 29.65 in 10.0 mi West 27.6 mph 35.7 mph N/A   Clear
4:56 PM 50.0 °F - 32.0 °F 50% 29.67 in 10.0 mi WSW 29.9 mph 38.0 mph N/A   Clear
5:56 PM 50.0 °F - 32.0 °F 50% 29.69 in 10.0 mi WSW 25.3 mph 35.7 mph N/A   Clear
6:56 PM 48.0 °F - 33.1 °F 56% 29.71 in 10.0 mi WSW 19.6 mph 29.9 mph N/A   Partly Cloudy
7:56 PM 46.0 °F 38.8 °F 32.0 °F 58% 29.71 in 10.0 mi WSW 18.4 mph - N/A   Partly Cloudy
8:56 PM 46.0 °F 38.8 °F 33.1 °F 61% 29.72 in 10.0 mi WSW 18.4 mph 26.5 mph N/A   Scattered Clouds
9:56 PM 43.0 °F 35.7 °F 32.0 °F 65% 29.75 in 10.0 mi West 15.0 mph - N/A   Partly Cloudy
10:56 PM 41.0 °F 32.8 °F 32.0 °F 70% 29.78 in 10.0 mi West 16.1 mph - N/A   Mostly Cloudy
11:56 PM 37.9 °F 32.1 °F 30.9 °F 76% 29.76 in 10.0 mi WSW 8.1 mph - N/A   Partly Cloudy